Date,TemperatureHighF,TemperatureAvgF,TemperatureLowF,DewpointHighF,DewpointAvgF,DewpointLowF,HumidityHigh,HumidityAvg,HumidityLow,PressureMaxIn,PressureMinIn,WindSpeedMaxMPH,WindSpeedAvgMPH,GustSpeedMaxMPH,PrecipitationSumIn
2013-9-1,81.9,74.6,69.3,74.5,71.6,68.4,97,89,70,29.65,29.51,0,-999,0,0.00
2013-9-2,77.3,73.6,71.4,76.3,72.4,70.5,99,95,86,29.63,29.39,0,-999,0,0.00
2013-9-3,80.3,71.1,61.5,73.1,68.0,58.5,99,88,64,29.55,29.37,0,-999,0,0.00
2013-9-4,79.8,66.7,57.2,64.3,59.4,55.9,97,75,44,29.71,29.53,0,-999,0,0.00
2013-9-5,78.7,61.4,49.2,65.7,57.6,46.8,97,85,48,30.06,29.61,0,-999,0,0.00
2013-9-6,69.5,54.9,41.9,51.9,46.5,40.8,97,71,35,30.19,29.95,0,-999,0,0.00
2013-9-7,78.5,62.7,48.9,62.4,54.7,46.5,92,72,39,29.96,29.59,0,-999,0,0.00
2013-9-8,72.8,62.2,46.0,63.6,54.7,42.4,95,73,40,29.98,29.45,0,-999,0,0.00
2013-9-9,70.0,55.1,40.2,52.8,46.9,38.6,95,71,38,30.18,29.97,0,-999,0,0.00
2013-9-10,73.8,65.0,54.3,72.1,62.8,50.9,98,90,82,30.05,29.84,0,-999,0,0.00
2013-9-11,93.4,78.1,67.6,79.2,72.5,66.8,100,81,50,29.92,29.72,0,-999,0,0.00
2013-9-12,85.5,74.0,66.8,77.7,70.1,65.5,97,85,62,29.76,29.32,0,-999,0,0.00
2013-9-13,76.4,67.2,58.7,71.2,64.7,55.9,99,90,73,29.48,29.19,0,-999,0,0.00
2013-9-14,65.8,59.0,50.2,58.0,54.5,48.7,94,82,64,29.91,29.47,0,-999,0,0.00
2013-9-15,70.8,55.6,46.0,55.8,50.6,44.9,98,81,41,30.06,29.88,0,-999,0,0.00
2013-9-16,66.1,56.8,46.7,60.2,52.3,40.8,97,81,65,30.21,29.81,0,-999,0,0.00
2013-9-17,63.3,49.1,37.3,48.8,42.5,35.7,95,74,43,30.47,30.21,0,-999,0,0.00
2013-9-18,72.5,54.7,40.1,54.8,47.4,39.0,98,75,35,30.31,30.02,0,-999,0,0.00
2013-9-19,77.2,60.0,46.4,62.2,53.5,45.1,96,77,40,30.02,29.86,0,-999,0,0.00
2013-9-20,76.9,60.8,47.6,62.5,55.4,46.5,97,80,45,29.96,29.81,0,-999,0,0.00
2013-9-21,73.3,62.8,51.6,65.6,59.1,50.4,99,85,63,29.85,29.39,0,-999,0,0.00
2013-9-22,69.4,62.6,51.6,66.6,58.5,48.0,97,84,55,29.58,29.21,0,-999,0,0.00
2013-9-23,61.4,51.4,44.4,49.3,45.0,41.5,90,74,52,29.83,29.58,0,-999,0,0.00
2013-9-24,65.7,51.7,40.6,50.6,44.9,39.1,96,74,45,29.81,29.54,0,-999,0,0.00
2013-9-25,66.2,53.6,43.3,57.6,49.0,42.0,97,81,57,29.80,29.63,0,-999,0,0.00
2013-9-26,66.5,56.7,52.5,54.6,51.5,48.6,92,79,53,30.02,29.79,0,-999,0,0.00
2013-9-27,66.2,57.7,50.5,57.7,53.8,49.0,95,83,66,30.21,30.01,0,-999,0,0.00
2013-9-28,71.8,56.1,45.3,61.1,52.0,44.3,98,84,55,30.32,30.20,0,-999,0,0.00
2013-9-29,65.3,53.2,45.1,56.3,49.0,43.9,99,84,45,30.21,30.00,0,-999,0,0.00
2013-9-30,66.5,53.0,43.6,56.5,49.6,42.4,100,86,57,30.01,29.76,0,-999,0,0.00